Weather History for New Delhi, India

Change the Weather History Date:

Tuesday, March 11, 2014

  Actual Average Record
Temperature  
Mean Temperature 68 °F -  
Max Temperature 77 °F 88 °F 91 °F (2004)
Min Temperature 60 °F 64 °F 51 °F (2012)
Cooling Degree Days 4    
Growing Degree Days 18 (Base 50)    
Moisture  
Dew Point 56 °F    
Average Humidity 67    
Maximum Humidity 88    
Minimum Humidity 41    
Precipitation  
Precipitation 0.00 in - - ()
Sea Level Pressure  
Sea Level Pressure 29.93 in    
Wind  
Wind Speed 11 mph ()    
Max Wind Speed 21 mph    
Max Gust Speed 29 mph    
Visibility 2.9 miles    
Events Rain , Thunderstorm    
Averages and records for this station are not official NWS values.
T = Trace of Precipitation, MM = Missing Value Source: Averaged Metar Reports

Daily Weather History Graph

Daily Weather History Graph

Search for Another Location

Airport:

Trip Planner

Search our weather history database for the weather conditions in past years. The results will help you decide how hot, cold, wet, or windy it might be!

Date:

Astronomy

Mar. 11, 2014 Rise Set
Actual Time 6:36 AM IST 6:27 PM IST
Civil Twilight 6:12 AM IST 6:51 PM IST
Nautical Twilight 5:45 AM IST 7:18 PM IST
Astronomical Twilight 5:17 AM IST 7:45 PM IST
Moon 1:56 PM IST (3/11) 2:52 AM IST (3/11)
Length of Visible Light 12h 38m
Length of Day
11h 51m
Waxing Gibbous, 75% of the Moon is Illuminated
Mar 11
Waxing Gibbous
Mar 16
Full
Mar 24
Last Quarter
Mar 31
New
Apr 7
First Quarter

Hourly Weather History & Observations

Time (IST) Temp. Dew Point Humidity Pressure Visibility Wind Dir Wind Speed Gust Speed Precip Events Conditions
12:00 AM 64.4 °F 51.8 °F 64% 29.92 in 3.1 mi ESE 16.1 mph - N/A   Haze
12:30 AM 64.4 °F 51.8 °F 64% 29.92 in 3.1 mi ESE 13.8 mph - N/A   Haze
1:00 AM 64.4 °F 51.8 °F 64% 29.92 in 3.1 mi ESE 11.5 mph - N/A   Haze
1:30 AM 62.6 °F 53.6 °F 72% 29.92 in 3.1 mi SE 6.9 mph - N/A   Haze
2:00 AM 62.6 °F 53.6 °F 72% 29.92 in 3.1 mi SE 8.1 mph - N/A   Haze
2:30 AM 60.8 °F 53.6 °F 77% 29.92 in 3.1 mi East 6.9 mph - N/A   Scattered Clouds
3:00 AM 60.8 °F 53.6 °F 77% 29.92 in 3.1 mi East 6.9 mph - N/A   Scattered Clouds
3:30 AM 60.8 °F 57.2 °F 88% 29.89 in 3.1 mi East 11.5 mph - N/A   Scattered Clouds
4:00 AM 60.8 °F 57.2 °F 88% 29.86 in 3.1 mi East 11.5 mph - N/A   Scattered Clouds
4:30 AM 60.8 °F 57.2 °F 88% 29.86 in 3.1 mi East 11.5 mph - N/A   Scattered Clouds
5:00 AM 60.8 °F 57.2 °F 88% 29.86 in 3.1 mi East 10.4 mph - N/A   Scattered Clouds
6:00 AM 60.8 °F 57.2 °F 88% 29.92 in 3.1 mi East 5.8 mph - N/A Thunderstorm Thunderstorm
6:30 AM 62.6 °F 57.2 °F 82% 29.95 in 3.1 mi NNW 10.4 mph - N/A Thunderstorm Thunderstorm
7:00 AM 60.8 °F 57.2 °F 88% 29.98 in 3.1 mi NNE 10.4 mph - N/A Thunderstorm Thunderstorm
7:30 AM 60.8 °F 57.2 °F 88% 29.95 in 3.1 mi ENE 12.7 mph - N/A   Scattered Clouds
8:00 AM 62.6 °F 55.4 °F 77% 29.98 in 3.1 mi East 10.4 mph - N/A   Scattered Clouds
8:30 AM 62.6 °F 55.4 °F 77% 29.98 in 3.1 mi East 11.5 mph - N/A   Scattered Clouds
9:00 AM 64.4 °F 55.4 °F 73% 29.98 in 2.8 mi East 15.0 mph - N/A   Haze
10:00 AM 71.6 °F 53.6 °F 53% 30.01 in 2.8 mi East 13.8 mph - N/A   Haze
11:00 AM 75.2 °F 53.6 °F 47% 30.01 in 3.1 mi ESE 17.3 mph - N/A   Haze
11:30 AM 77.0 °F 51.8 °F 41% 29.98 in 3.1 mi East 18.4 mph - N/A   Haze
12:00 PM 77.0 °F 53.6 °F 44% 29.98 in 3.1 mi ESE 15.0 mph - N/A   Haze
12:30 PM 77.0 °F 53.6 °F 44% 29.98 in 3.1 mi ESE 20.7 mph - N/A   Haze
1:00 PM 75.2 °F 53.6 °F 47% 29.95 in 2.8 mi ESE 15.0 mph - N/A   Haze
1:30 PM 73.4 °F 55.4 °F 53% 29.95 in 2.8 mi East 12.7 mph - N/A   Haze
2:00 PM 75.2 °F 57.2 °F 53% 29.92 in 2.8 mi SE 16.1 mph - N/A   Haze
2:30 PM 77.0 °F 57.2 °F 50% 29.92 in 2.8 mi ESE 17.3 mph - N/A   Haze
3:30 PM 77.0 °F 57.2 °F 50% 29.89 in 3.1 mi SE 17.3 mph - N/A   Haze
4:00 PM 77.0 °F 57.2 °F 50% 29.89 in 3.1 mi ESE 11.5 mph - N/A   Haze
4:30 PM 77.0 °F 57.2 °F 50% 29.89 in 3.1 mi SE 13.8 mph - N/A   Haze
5:00 PM 77.0 °F 57.2 °F 50% 29.86 in 3.1 mi SE 12.7 mph - N/A   Haze
5:30 PM 77.0 °F 59.0 °F 54% 29.86 in 2.8 mi ESE 13.8 mph - N/A   Haze
6:00 PM 75.2 °F 59.0 °F 57% 29.86 in 2.8 mi East 12.7 mph - N/A   Haze
6:30 PM 73.4 °F 59.0 °F 61% 29.89 in 2.8 mi East 18.4 mph - N/A   Haze
7:00 PM 71.6 °F 59.0 °F 64% 29.89 in 2.5 mi East 11.5 mph - N/A   Haze
7:30 PM 71.6 °F 59.0 °F 64% 29.92 in 2.5 mi East 11.5 mph - N/A   Haze
8:30 PM 68.0 °F 59.0 °F 73% 29.95 in 2.5 mi NNE 11.5 mph 23.0 mph N/A Thunderstorm Thunderstorm
9:00 PM 66.2 °F 57.2 °F 73% 29.95 in 2.5 mi NNE 11.5 mph 23.0 mph N/A Thunderstorm Thunderstorm
9:30 PM 64.4 °F 57.2 °F 77% 29.98 in 2.5 mi NE 11.5 mph 23.0 mph N/A Thunderstorm Thunderstorm
10:00 PM 64.4 °F 57.2 °F 77% 29.98 in 2.5 mi NE 11.5 mph 23.0 mph N/A Rain , Thunderstorm Light Thunderstorms and Rain
10:30 PM 60.8 °F 55.4 °F 82% 29.98 in 2.2 mi East 11.5 mph 28.8 mph N/A Rain , Thunderstorm Light Thunderstorms and Rain
11:00 PM 60.8 °F 55.4 °F 82% 29.98 in 2.2 mi East 11.5 mph 23.0 mph N/A Thunderstorm Thunderstorm
11:30 PM 62.6 °F 55.4 °F 77% 29.95 in 2.2 mi East 9.2 mph 20.7 mph N/A   Mostly Cloudy